LA9TLA-1 Weather Reports


Display with metric or nautical units.
time (UTC)temp
F
wind
direction
speed
MPH
gust
MPH
rain 1hr
in
rain 24hr
in
rain mn
in
humidity
%
barometer
mb
20260503002743 44 360 0.0 5.0 0.00 0.00 0.00 99 1021.1
20260502232748 45 360 0.0 6.0 0.00 0.00 0.00 99 1021.1
20260502225745 45 360 3.0 8.0 0.00 0.00 0.00 99 1021.2
20260502222744 45 360 6.0 10.0 0.00 0.00 0.00 99 1021.2
20260502215744 46 360 6.0 12.0 0.00 0.00 0.02 99 1021.2
20260502205745 46 360 5.0 8.0 0.00 0.00 0.02 99 1021.2
20260502202745 47 360 4.0 9.0 0.00 0.00 0.02 99 1021.2
20260502195745 48 360 5.0 8.0 0.00 0.00 0.02 99 1021.1
20260502192746 49 360 3.0 8.0 0.00 0.00 0.02 99 1020.7
20260502185746 49 360 5.0 9.0 0.00 0.00 0.02 99 1020.7
20260502182746 50 360 3.0 9.0 0.00 0.00 0.02 99 1020.7
20260502162745 53 360 3.0 8.0 0.00 0.00 0.02 77 1020.6
20260502112745 50 360 1.0 3.0 0.00 0.00 0.00 59 1022.2
20260502105747 51 45 0.0 2.0 0.00 0.00 0.00 32 1022.2
20260502065748 51 90 1.0 5.0 0.00 0.00 0.00 10 1023.1
20260502062745 54 135 0.0 2.0 0.00 0.00 0.00 10 1023.2
20260502055745 56 135 0.0 3.0 0.00 0.00 0.00 10 1023.0
20260502052744 51 360 0.0 3.0 0.00 0.00 0.00 10 1023.2
20260502045745 53 135 0.0 1.0 0.00 0.00 0.00 10 1023.6
20260502042744 46 135 2.0 3.0 0.00 0.00 0.00 10 1023.4
20260502035748 44 135 0.0 1.0 0.00 0.00 0.00 10 1024.3
20260502032748 46 135 1.0 3.0 0.00 0.00 0.00 10 1024.1
20260502025747 45 135 1.0 3.0 0.00 0.00 0.00 10 1024.3
20260502015747 47 135 1.0 2.0 0.00 0.00 0.00 10 1025.5
20260502012746 48 135 1.0 4.0 0.00 0.00 0.00 10 1025.9